Weather History for North Las Vegas, NV

Change the Weather History Date:

Wednesday, March 20, 2013

  Actual Average Record
Temperature  
Mean Temperature 68 °F -  
Max Temperature 77 °F 76 °F 90 °F (2004)
Min Temperature 62 °F 52 °F 27 °F (1951)
Cooling Degree Days 4    
Growing Degree Days 18 (Base 50)    
Moisture  
Dew Point 28 °F    
Average Humidity 23    
Maximum Humidity 29    
Minimum Humidity 17    
Precipitation  
Precipitation 0.00 in - - ()
Sea Level Pressure  
Sea Level Pressure 29.88 in    
Wind  
Wind Speed 6 mph (WSW)    
Max Wind Speed 16 mph    
Max Gust Speed 22 mph    
Visibility 10 miles    
Events      
Averages and records for this station are not official NWS values.
T = Trace of Precipitation, MM = Missing Value Source: NWS Daily Summary

Daily Weather History Graph

Daily Weather History Graph

Search for Another Location

Airport:

Trip Planner

Search our weather history database for the weather conditions in past years. The results will help you decide how hot, cold, wet, or windy it might be!

Date:

Astronomy

Mar. 20, 2013 Rise Set
Actual Time 6:43 AM PDT 6:52 PM PDT
Civil Twilight 6:18 AM PDT 7:18 PM PDT
Nautical Twilight 5:48 AM PDT 7:48 PM PDT
Astronomical Twilight 5:18 AM PDT 8:18 PM PDT
Moon 12:41 PM PDT (3/20) 2:17 AM PDT (3/20)
Length of Visible Light 13h 00m
Length of Day
12h 08m
First Quarter, 60% of the Moon is Illuminated
Mar 20
First Quarter
Mar 27
Full
Apr 2
Last Quarter
Apr 10
New
Apr 18
First Quarter

Hourly Weather History & Observations

Time (PDT) Temp. Dew Point Humidity Pressure Visibility Wind Dir Wind Speed Gust Speed Precip Events Conditions
12:53 AM 63.0 °F 28.0 °F 27% 30.01 in 10.0 mi Calm Calm - N/A   Clear
1:53 AM 62.1 °F 28.9 °F 29% 29.99 in 10.0 mi Calm Calm - N/A   Clear
2:53 AM 62.1 °F 27.0 °F 26% 29.96 in 10.0 mi Calm Calm - N/A   Clear
3:53 AM 62.1 °F 28.0 °F 28% 29.93 in 10.0 mi South 3.5 mph - N/A   Clear
4:53 AM 63.0 °F 26.1 °F 25% 29.90 in 10.0 mi East 8.1 mph - N/A   Clear
5:53 AM 63.0 °F 26.1 °F 25% 29.90 in 10.0 mi Calm Calm - N/A   Clear
6:53 AM 64.9 °F 30.0 °F 27% 29.89 in 10.0 mi SSE 10.4 mph - N/A   Clear
7:53 AM 68.0 °F 30.9 °F 25% 29.90 in 10.0 mi SW 12.7 mph - N/A   Clear
8:53 AM 70.0 °F 30.9 °F 24% 29.91 in 10.0 mi SW 16.1 mph 21.9 mph N/A   Clear
9:53 AM 71.1 °F 30.9 °F 23% 29.91 in 10.0 mi South 13.8 mph - N/A   Clear
10:53 AM 73.0 °F 28.0 °F 19% 29.91 in 10.0 mi SSW 12.7 mph - N/A   Clear
11:53 AM 75.0 °F 27.0 °F 17% 29.90 in 10.0 mi WSW 15.0 mph 20.7 mph N/A   Clear
12:53 PM 75.0 °F 28.9 °F 18% 29.90 in 10.0 mi NW 6.9 mph - N/A   Clear
1:53 PM 75.9 °F 28.0 °F 17% 29.88 in 10.0 mi North 4.6 mph - N/A   Clear
2:53 PM 75.9 °F 28.9 °F 18% 29.86 in 10.0 mi WNW 4.6 mph - N/A   Clear
3:53 PM 75.0 °F 28.0 °F 18% 29.85 in 10.0 mi West 16.1 mph - N/A   Clear
4:53 PM 75.0 °F 28.0 °F 18% 29.84 in 10.0 mi SW 11.5 mph - N/A   Clear
5:53 PM 73.9 °F 26.1 °F 17% 29.83 in 10.0 mi SW 10.4 mph - N/A   Clear
6:53 PM 73.0 °F 27.0 °F 18% 29.81 in 10.0 mi South 9.2 mph - N/A   Clear
7:53 PM 72.0 °F 27.0 °F 19% 29.80 in 10.0 mi SSW 5.8 mph - N/A   Clear
8:53 PM 68.0 °F 28.9 °F 23% 29.79 in 10.0 mi South 5.8 mph - N/A   Clear
9:53 PM 64.0 °F 30.9 °F 29% 29.79 in 10.0 mi NNW 5.8 mph - N/A   Clear
10:53 PM 64.4 °F 30.2 °F 28% 29.79 in 10.0 mi NNW 6.9 mph - N/A   Clear
11:53 PM 64.0 °F 30.0 °F 28% 29.78 in 10.0 mi WNW 5.8 mph - N/A   Clear